FENGYUN 1C DEB

Satellite information

Favourite Embed

Satellite Type and Status

DEBRISIN ORBIT

Key statistics

Satellite FENGYUN 1C DEB at a glance.

Uptime

9663

Days in orbit

Revolutions

≈ 14.2

Per day

Orbit

SSO

Sun Synchronous Orbit

Inclination

98.3

Latest

Satellite identification and parameters

Extended collection of information and parameters for FENGYUN 1C DEB.

Object identification

Identified? True

Debris? True

Object name: FENGYUN 1C DEB

International designator: 1999-025FW

Object number (NORAD): 29876

Object ID (CCSDS): 29876

Country: PEOPLES REPUBLIC OF CHINA (PRC)

Current information (Y/N): Y

RCS size: SMALL

Orbital parameters

Period: 101.391 minutes

Inclination: 98.3407 deg

SMA: 7202.65 km

Apoapsis: 869.066 km

Periapsis: 779.965 km

RAAN: 349.3752 deg

Eccentricy: 0.00618527

Argument of periapsis: 163.4469 deg

Mean anomaly: 283.9759 deg

Mean motion: 14.20248219 rev/day

Mean motion (dot): 0.00000436 rev/day2

B* drag term: 0.0002187171 1/REarth

Two-line elements (TLE)

Creation date: Oct. 23, 2025, 2:46 a.m.

Reference frame: TEME

Reference center: EARTH

Epoch: Oct. 22, 2025, 9:22 p.m. UTC

TLE line 0: 0 FENGYUN 1C DEB

TLE line 1: 1 29876U 99025FW 25295.89048582 .00000436 00000-0 21872-3 0 9990

TLE line 2: 2 29876 98.3407 349.3752 0061853 163.4469 283.9759 14.20248219971951

Live tracking on map

Real-time ground track for satellite FENGYUN 1C DEB.

In-orbit conjunctions

A list of the most updated potential collisions computed for object FENGYUN 1C DEB.

Target Orbit TCA Probability of collision Miss distance Type
NOAA 16 DEB SSO 2025-07-23 14:54:12 0.0001027559 302.0 (m) DEBRIS
METEOR 2-5 DEB LEO 2025-07-22 12:39:11 0.0002618039 211.0 (m) DEBRIS
METEOR 2-5 DEB LEO 2024-07-26 21:17:32 0.0002977357 73.0 (m) DEBRIS

Associated space launch

Chinese polar orbiting meteorological satellite

FENGYUN 1C DEB was lifted into orbit during the mission ‘Long March 4B | Feng Yun 1C’, on board a Long March 4B space rocket.

The launch took place on May 10, 1999, 1:33 a.m. from Launch Complex 7.

For more information about the launch, click the button.

Launch to space Long March 4B | Feng Yun 1C
Long March 4B | Feng Yun 1C

Agency: N/A

Status: Launch Successful

Launch date: May 10, 1999, 1:33 a.m. UTC

Rocket: Long March 4B

Launch pad: Launch Complex 7

Location: Taiyuan Satellite Launch Center, People's Republic of China

...

Latest news about this satellite

There are no fresh news available about this satellite. Check back as we update our databases every day.


Newsletter sign-up

Weekly statistics, charts and insights to help you stay on top of the space industry.